EN

Hourly Weather Bolshinka

Today, 21 October, Wednesday

Time Temperature Precipitation Wind Pressure Humidity
00:00 +5°C° 0 mm 3 mps 763 mmHg 62%
01:00 +4°C° 0 mm 3 mps 764 mmHg 68%
02:00 +3°C° 0 mm 3 mps 764 mmHg 74%
03:00 +2°C° 0 mm 3 mps 765 mmHg 80%
04:00 +1°C° 0 mm 3 mps 765 mmHg 82%
05:00 +1°C° 0 mm 3 mps 765 mmHg 85%
06:00 +1°C° 0 mm 3 mps 765 mmHg 87%
07:00 +2°C° 0 mm 3 mps 766 mmHg 79%
08:00 +4°C° 0 mm 4 mps 766 mmHg 72%
09:00 +5°C° 0 mm 4 mps 766 mmHg 63%
10:00 +7°C° 0 mm 4 mps 766 mmHg 54%
11:00 +8°C° 0 mm 4 mps 766 mmHg 46%
12:00 +10°C° 0 mm 5 mps 766 mmHg 38%
13:00 +11°C° 0 mm 4 mps 766 mmHg 35%
14:00 +12°C° 0 mm 4 mps 766 mmHg 33%
15:00 +12°C° 0 mm 4 mps 765 mmHg 30%
16:00 +11°C° 0 mm 4 mps 765 mmHg 34%
17:00 +9°C° 0 mm 3 mps 765 mmHg 39%
18:00 +8°C° 0 mm 2 mps 765 mmHg 43%
19:00 +8°C° 0 mm 2 mps 765 mmHg 44%
20:00 +9°C° 0 mm 1 mps 765 mmHg 46%
21:00 +8°C° 0 mm 0 mps 764 mmHg 47%
22:00 +7°C° 0 mm 0 mps 764 mmHg 49%
23:00 +7°C° 0 mm 0 mps 764 mmHg 50%

Tomorrow, 22 October, Thursday

Time Temperature Precipitation Wind Pressure Humidity
00:00 +8°C° 0 mm 1 mps 764 mmHg 51%
01:00 +8°C° 0 mm 1 mps 764 mmHg 52%
02:00 +6°C° 0 mm 2 mps 764 mmHg 53%
03:00 +6°C° 0 mm 2 mps 763 mmHg 54%
04:00 +6°C° 0 mm 2 mps 763 mmHg 55%
05:00 +5°C° 0 mm 2 mps 763 mmHg 56%
06:00 +5°C° 0 mm 2 mps 763 mmHg 57%
07:00 +5°C° 0 mm 3 mps 763 mmHg 54%
08:00 +8°C° 0 mm 3 mps 763 mmHg 52%
09:00 +9°C° 0 mm 3 mps 763 mmHg 49%
10:00 +11°C° 0 mm 3 mps 763 mmHg 46%
11:00 +13°C° 0 mm 4 mps 763 mmHg 43%
12:00 +14°C° 0 mm 4 mps 762 mmHg 40%
13:00 +15°C° 0 mm 4 mps 762 mmHg 40%
14:00 +15°C° 0 mm 4 mps 762 mmHg 41%
15:00 +15°C° 0 mm 4 mps 762 mmHg 42%
16:00 +14°C° 0 mm 4 mps 761 mmHg 47%
17:00 +14°C° 0 mm 3 mps 761 mmHg 51%
18:00 +13°C° 0 mm 3 mps 761 mmHg 56%
19:00 +12°C° 0 mm 4 mps 761 mmHg 61%
20:00 +12°C° 0 mm 4 mps 761 mmHg 67%
21:00 +11°C° 0 mm 4 mps 761 mmHg 72%
22:00 +11°C° 0 mm 4 mps 761 mmHg 74%
23:00 +12°C° 0 mm 4 mps 760 mmHg 75%

Day after tomorrow, 23 October, Friday

Time Temperature Precipitation Wind Pressure Humidity
00:00 +12°C° 0 mm 4 mps 760 mmHg 76%
01:00 +11°C° 0 mm 4 mps 760 mmHg 81%
02:00 +11°C° 0 mm 4 mps 760 mmHg 86%
03:00 +10°C° 0 mm 3 mps 760 mmHg 91%
04:00 +10°C° 0 mm 3 mps 760 mmHg 92%
05:00 +9°C° 0 mm 3 mps 760 mmHg 92%
06:00 +9°C° 0 mm 3 mps 759 mmHg 92%
07:00 +10°C° 0 mm 4 mps 759 mmHg 85%
08:00 +12°C° 0 mm 5 mps 759 mmHg 78%
09:00 +13°C° 0 mm 5 mps 759 mmHg 71%
10:00 +15°C° 0 mm 5 mps 759 mmHg 60%
11:00 +17°C° 0 mm 6 mps 759 mmHg 49%
12:00 +20°C° 0 mm 6 mps 759 mmHg 38%
13:00 +20°C° 0 mm 6 mps 759 mmHg 37%
14:00 +21°C° 0 mm 6 mps 759 mmHg 36%
15:00 +21°C° 0 mm 6 mps 758 mmHg 35%
16:00 +20°C° 0 mm 5 mps 758 mmHg 38%
17:00 +18°C° 0 mm 4 mps 758 mmHg 42%
18:00 +17°C° 0 mm 3 mps 758 mmHg 46%
19:00 +16°C° 0 mm 3 mps 758 mmHg 52%
20:00 +16°C° 0 mm 3 mps 758 mmHg 59%
21:00 +14°C° 0 mm 3 mps 758 mmHg 65%
22:00 +13°C° 0 mm 3 mps 757 mmHg 72%
23:00 +13°C° 0 mm 3 mps 757 mmHg 80%

24 October, Saturday

Time Temperature Precipitation Wind Pressure Humidity
00:00 +12°C° 0 mm 3 mps 757 mmHg 87%
01:00 +12°C° 0 mm 3 mps 757 mmHg 88%
02:00 +13°C° 0 mm 3 mps 756 mmHg 88%
03:00 +13°C° 0 mm 4 mps 756 mmHg 89%
04:00 +13°C° 0 mm 4 mps 756 mmHg 87%
05:00 +13°C° 0 mm 4 mps 756 mmHg 86%
06:00 +13°C° 0 mm 4 mps 756 mmHg 85%
07:00 +14°C° 0 mm 5 mps 756 mmHg 81%
08:00 +14°C° 0 mm 5 mps 756 mmHg 77%
09:00 +15°C° 0 mm 5 mps 756 mmHg 73%
10:00 +16°C° 0 mm 5 mps 756 mmHg 69%
11:00 +17°C° 0 mm 5 mps 756 mmHg 65%
12:00 +19°C° 0 mm 5 mps 756 mmHg 61%
13:00 +19°C° 0 mm 4 mps 756 mmHg 61%
14:00 +18°C° 0 mm 4 mps 756 mmHg 61%
15:00 +18°C° 0 mm 3 mps 756 mmHg 61%
16:00 +17°C° 0 mm 3 mps 756 mmHg 66%
17:00 +16°C° 0 mm 2 mps 756 mmHg 71%
18:00 +15°C° 0 mm 2 mps 756 mmHg 75%
19:00 +14°C° 0 mm 2 mps 756 mmHg 78%
20:00 +14°C° 0 mm 1 mps 756 mmHg 81%
21:00 +13°C° 0 mm 1 mps 756 mmHg 84%
22:00 +13°C° 0 mm 1 mps 756 mmHg 85%
23:00 +13°C° 0 mm 2 mps 756 mmHg 87%

25 October, Sunday

Time Temperature Precipitation Wind Pressure Humidity
00:00 +13°C° 0 mm 2 mps 756 mmHg 89%
01:00 +13°C° 0 mm 2 mps 755 mmHg 90%
02:00 +12°C° 0 mm 2 mps 755 mmHg 91%
03:00 +12°C° 0 mm 2 mps 755 mmHg 92%
04:00 +13°C° 0 mm 2 mps 755 mmHg 93%
05:00 +12°C° 0 mm 3 mps 755 mmHg 93%
06:00 +12°C° 0 mm 3 mps 755 mmHg 94%
07:00 +13°C° 0 mm 3 mps 754 mmHg 90%
08:00 +14°C° 0 mm 4 mps 754 mmHg 87%
09:00 +15°C° 0 mm 5 mps 754 mmHg 83%
10:00 +16°C° 0.1 mm 5 mps 754 mmHg 72%
11:00 +17°C° 0.1 mm 6 mps 754 mmHg 62%
12:00 +20°C° 0.1 mm 6 mps 754 mmHg 51%
13:00 +20°C° 0 mm 6 mps 754 mmHg 48%
14:00 +20°C° 0 mm 6 mps 754 mmHg 45%
15:00 +20°C° 0 mm 6 mps 754 mmHg 42%
16:00 +19°C° 0 mm 5 mps 754 mmHg 49%
17:00 +16°C° 0 mm 5 mps 754 mmHg 56%
18:00 +15°C° 0 mm 4 mps 755 mmHg 64%
19:00 +13°C° 0 mm 4 mps 755 mmHg 68%
20:00 +12°C° 0 mm 4 mps 755 mmHg 73%
21:00 +11°C° 0 mm 4 mps 756 mmHg 78%
22:00 +10°C° 0 mm 4 mps 756 mmHg 79%
23:00 +10°C° 0 mm 4 mps 756 mmHg 80%

26 October, Monday

Time Temperature Precipitation Wind Pressure Humidity
00:00 +8°C° 0 mm 4 mps 756 mmHg 81%
01:00 +8°C° 0 mm 5 mps 756 mmHg 84%
02:00 +8°C° 0 mm 5 mps 757 mmHg 88%
03:00 +8°C° 0 mm 5 mps 757 mmHg 91%
04:00 +9°C° 0 mm 5 mps 757 mmHg 86%
05:00 +9°C° 0 mm 6 mps 758 mmHg 80%
06:00 +10°C° 0 mm 6 mps 758 mmHg 75%
07:00 +10°C° 0 mm 6 mps 759 mmHg 73%
08:00 +10°C° 0 mm 6 mps 759 mmHg 71%
09:00 +11°C° 0 mm 6 mps 760 mmHg 70%
10:00 +13°C° 0 mm 6 mps 760 mmHg 65%
11:00 +14°C° 0 mm 6 mps 760 mmHg 59%
12:00 +15°C° 0 mm 6 mps 760 mmHg 54%
13:00 +15°C° 0 mm 6 mps 760 mmHg 51%
14:00 +16°C° 0 mm 6 mps 760 mmHg 48%
15:00 +16°C° 0 mm 6 mps 760 mmHg 45%
16:00 +14°C° 0 mm 5 mps 761 mmHg 49%
17:00 +12°C° 0 mm 4 mps 761 mmHg 54%
18:00 +10°C° 0 mm 3 mps 761 mmHg 58%
19:00 +10°C° 0 mm 3 mps 762 mmHg 61%
20:00 +9°C° 0 mm 3 mps 762 mmHg 63%
21:00 +7°C° 0 mm 4 mps 762 mmHg 65%
22:00 +7°C° 0 mm 3 mps 762 mmHg 69%
23:00 +7°C° 0 mm 3 mps 762 mmHg 73%

27 October, Tuesday

Time Temperature Precipitation Wind Pressure Humidity
00:00 +5°C° 0 mm 3 mps 763 mmHg 77%
01:00 +5°C° 0 mm 3 mps 762 mmHg 80%
02:00 +4°C° 0 mm 3 mps 762 mmHg 83%
03:00 +4°C° 0 mm 3 mps 762 mmHg 86%
04:00 +3°C° 0 mm 3 mps 763 mmHg 86%
05:00 +3°C° 0 mm 3 mps 763 mmHg 87%
06:00 +3°C° 0 mm 3 mps 763 mmHg 88%
07:00 +4°C° 0 mm 4 mps 763 mmHg 82%
08:00 +6°C° 0 mm 4 mps 763 mmHg 75%
09:00 +7°C° 0 mm 5 mps 763 mmHg 69%
10:00 +9°C° 0 mm 5 mps 763 mmHg 63%
11:00 +12°C° 0 mm 5 mps 763 mmHg 57%
12:00 +14°C° 0 mm 5 mps 763 mmHg 51%
13:00 +15°C° 0 mm 5 mps 763 mmHg 51%
14:00 +15°C° 0 mm 5 mps 763 mmHg 51%
15:00 +16°C° 0 mm 5 mps 763 mmHg 50%
16:00 +14°C° 0 mm 4 mps 763 mmHg 57%
17:00 +12°C° 0 mm 4 mps 763 mmHg 65%
18:00 +11°C° 0 mm 3 mps 763 mmHg 72%
19:00 +10°C° 0 mm 3 mps 763 mmHg 75%
20:00 +9°C° 0 mm 3 mps 763 mmHg 78%
21:00 +9°C° 0 mm 3 mps 764 mmHg 80%
22:00 +8°C° 0 mm 3 mps 764 mmHg 83%
23:00 +7°C° 0 mm 3 mps 764 mmHg 85%
Show more